• In Belarus
  • List of Countries
  • For 7 days
  • Water Temperature
  • Satellite Maps
  • Weather Map
  • Weather Widgets
  • user-avatar
    Login

    Hourly Weather Santa Fe

    Today, 17 December, Sunday

    Time Temperature Precipitation Wind Pressure Humidity
    00:00 +35°C° 1.7 mm 7 mps 745 mmHg 45%
    01:00 +32°C° 1.7 mm 7 mps 747 mmHg 63%
    02:00 +28°C° 0 mm 7 mps 748 mmHg 82%
    03:00 +27°C° 4.2 mm 7 mps 750 mmHg 85%
    04:00 +26°C° 4.2 mm 6 mps 751 mmHg 88%
    05:00 +24°C° 4.2 mm 6 mps 753 mmHg 90%
    06:00 +24°C° 1.2 mm 6 mps 754 mmHg 82%
    07:00 +23°C° 1.2 mm 7 mps 756 mmHg 74%
    08:00 +23°C° 0 mm 9 mps 757 mmHg 56%
    09:00 +24°C° 0 mm 8 mps 758 mmHg 47%
    10:00 +27°C° 0 mm 8 mps 759 mmHg 38%
    11:00 +29°C° 0 mm 8 mps 760 mmHg 28%
    12:00 +29°C° 0 mm 8 mps 760 mmHg 26%
    13:00 +30°C° 0 mm 7 mps 760 mmHg 24%
    14:00 +32°C° 0 mm 7 mps 760 mmHg 22%
    15:00 +30°C° 0 mm 7 mps 760 mmHg 23%
    16:00 +30°C° 0 mm 7 mps 760 mmHg 23%
    17:00 +29°C° 0 mm 7 mps 760 mmHg 23%
    18:00 +27°C° 0 mm 6 mps 760 mmHg 27%
    19:00 +25°C° 0 mm 5 mps 761 mmHg 31%
    20:00 +22°C° 0 mm 4 mps 761 mmHg 35%
    21:00 +21°C° 0 mm 4 mps 762 mmHg 39%
    22:00 +21°C° 0 mm 4 mps 763 mmHg 43%
    23:00 +20°C° 0 mm 4 mps 764 mmHg 47%

    Tomorrow, 18 December, Monday

    Time Temperature Precipitation Wind Pressure Humidity
    00:00 +19°C° 0 mm 4 mps 764 mmHg 50%
    01:00 +18°C° 0 mm 4 mps 764 mmHg 53%
    02:00 +17°C° 0 mm 4 mps 764 mmHg 57%
    03:00 +15°C° 0 mm 4 mps 764 mmHg 56%
    04:00 +15°C° 0 mm 4 mps 764 mmHg 55%
    05:00 +14°C° 0 mm 3 mps 764 mmHg 55%
    06:00 +15°C° 0 mm 4 mps 764 mmHg 47%
    07:00 +18°C° 0 mm 4 mps 764 mmHg 40%
    08:00 +20°C° 0 mm 5 mps 764 mmHg 32%
    09:00 +22°C° 0 mm 5 mps 764 mmHg 27%
    10:00 +25°C° 0 mm 5 mps 764 mmHg 23%
    11:00 +27°C° 0 mm 5 mps 763 mmHg 18%
    12:00 +28°C° 0 mm 5 mps 762 mmHg 17%
    13:00 +29°C° 0 mm 5 mps 761 mmHg 16%
    14:00 +30°C° 0 mm 4 mps 761 mmHg 16%
    15:00 +30°C° 0 mm 4 mps 760 mmHg 17%
    16:00 +30°C° 0 mm 4 mps 760 mmHg 18%
    17:00 +30°C° 0 mm 4 mps 759 mmHg 19%
    18:00 +28°C° 0 mm 4 mps 759 mmHg 24%
    19:00 +26°C° 0 mm 4 mps 759 mmHg 28%
    20:00 +24°C° 0 mm 3 mps 760 mmHg 33%
    21:00 +22°C° 0 mm 3 mps 760 mmHg 35%
    22:00 +22°C° 0 mm 3 mps 760 mmHg 38%
    23:00 +21°C° 0 mm 3 mps 760 mmHg 40%

    Day after tomorrow, 19 December, Tuesday

    Time Temperature Precipitation Wind Pressure Humidity
    00:00 +21°C° 0 mm 3 mps 760 mmHg 45%
    01:00 +21°C° 0 mm 3 mps 760 mmHg 49%
    02:00 +20°C° 0 mm 3 mps 759 mmHg 53%
    03:00 +20°C° 0 mm 4 mps 759 mmHg 58%
    04:00 +20°C° 0 mm 4 mps 760 mmHg 62%
    05:00 +20°C° 0 mm 4 mps 760 mmHg 67%
    06:00 +20°C° 0.3 mm 4 mps 760 mmHg 69%
    07:00 +20°C° 0.3 mm 4 mps 761 mmHg 71%
    08:00 +21°C° 0.3 mm 4 mps 762 mmHg 74%
    09:00 +23°C° 0.2 mm 4 mps 761 mmHg 65%
    10:00 +26°C° 0.2 mm 4 mps 761 mmHg 57%
    11:00 +28°C° 0.2 mm 4 mps 761 mmHg 49%
    12:00 +30°C° 0 mm 5 mps 760 mmHg 45%
    13:00 +32°C° 0 mm 5 mps 760 mmHg 41%
    14:00 +33°C° 0 mm 5 mps 759 mmHg 37%
    15:00 +30°C° 0.1 mm 5 mps 759 mmHg 41%
    16:00 +28°C° 0.1 mm 5 mps 759 mmHg 46%
    17:00 +26°C° 0.1 mm 5 mps 758 mmHg 51%
    18:00 +25°C° 0.3 mm 5 mps 758 mmHg 59%
    19:00 +22°C° 0.3 mm 5 mps 758 mmHg 68%
    20:00 +20°C° 0.3 mm 5 mps 758 mmHg 76%
    21:00 +20°C° 0 mm 4 mps 758 mmHg 74%
    22:00 +20°C° 0 mm 3 mps 759 mmHg 72%
    23:00 +20°C° 0 mm 3 mps 759 mmHg 70%

    20 December, Wednesday

    Time Temperature Precipitation Wind Pressure Humidity
    00:00 +20°C° 0 mm 3 mps 759 mmHg 73%
    01:00 +19°C° 0 mm 3 mps 758 mmHg 76%
    02:00 +19°C° 0 mm 3 mps 758 mmHg 79%
    03:00 +19°C° 0 mm 3 mps 758 mmHg 81%
    04:00 +18°C° 0 mm 3 mps 758 mmHg 83%
    05:00 +18°C° 0 mm 3 mps 758 mmHg 85%
    06:00 +21°C° 0 mm 3 mps 758 mmHg 77%
    07:00 +25°C° 0 mm 3 mps 757 mmHg 68%
    08:00 +27°C° 0 mm 4 mps 757 mmHg 59%
    09:00 +30°C° 0 mm 3 mps 757 mmHg 52%
    10:00 +33°C° 0 mm 3 mps 756 mmHg 45%
    11:00 +35°C° 0 mm 2 mps 756 mmHg 38%
    12:00 +36°C° 0 mm 2 mps 755 mmHg 35%
    13:00 +37°C° 0 mm 2 mps 754 mmHg 33%
    14:00 +38°C° 0 mm 2 mps 753 mmHg 30%
    15:00 +38°C° 0 mm 2 mps 753 mmHg 31%
    16:00 +37°C° 0 mm 2 mps 752 mmHg 32%
    17:00 +37°C° 0 mm 2 mps 752 mmHg 33%
    18:00 +35°C° 0 mm 2 mps 752 mmHg 37%
    19:00 +33°C° 0 mm 3 mps 752 mmHg 41%
    20:00 +30°C° 0 mm 3 mps 752 mmHg 44%
    21:00 +29°C° 0 mm 3 mps 753 mmHg 47%
    22:00 +28°C° 0 mm 3 mps 753 mmHg 49%
    23:00 +28°C° 0 mm 4 mps 753 mmHg 52%

    21 December, Thursday

    Time Temperature Precipitation Wind Pressure Humidity
    00:00 +27°C° 0 mm 4 mps 753 mmHg 55%
    01:00 +26°C° 0 mm 4 mps 753 mmHg 58%
    02:00 +26°C° 0 mm 4 mps 753 mmHg 61%
    03:00 +25°C° 0 mm 4 mps 753 mmHg 65%
    04:00 +25°C° 0 mm 4 mps 753 mmHg 69%
    05:00 +24°C° 0 mm 3 mps 753 mmHg 73%
    06:00 +26°C° 0 mm 4 mps 754 mmHg 66%
    07:00 +29°C° 0 mm 4 mps 754 mmHg 60%
    08:00 +32°C° 0 mm 4 mps 754 mmHg 53%
    09:00 +34°C° 0 mm 3 mps 754 mmHg 46%
    10:00 +37°C° 0 mm 2 mps 754 mmHg 38%
    11:00 +40°C° 0 mm 1 mps 754 mmHg 31%
    12:00 +40°C° 0 mm 1 mps 753 mmHg 29%
    13:00 +40°C° 0 mm 2 mps 752 mmHg 27%
    14:00 +40°C° 0 mm 2 mps 751 mmHg 26%
    15:00 +40°C° 0 mm 2 mps 751 mmHg 25%
    16:00 +42°C° 0 mm 3 mps 750 mmHg 24%
    17:00 +42°C° 0 mm 3 mps 750 mmHg 23%
    18:00 +38°C° 0 mm 3 mps 750 mmHg 27%
    19:00 +36°C° 0 mm 3 mps 751 mmHg 31%
    20:00 +34°C° 0 mm 3 mps 751 mmHg 35%
    21:00 +33°C° 0 mm 3 mps 751 mmHg 38%
    22:00 +31°C° 0 mm 3 mps 751 mmHg 42%
    23:00 +30°C° 0 mm 4 mps 751 mmHg 46%

    22 December, Friday

    Time Temperature Precipitation Wind Pressure Humidity
    00:00 +29°C° 0 mm 3 mps 751 mmHg 48%
    01:00 +28°C° 0 mm 3 mps 751 mmHg 51%
    02:00 +28°C° 0 mm 3 mps 751 mmHg 53%
    03:00 +27°C° 0 mm 3 mps 751 mmHg 55%
    04:00 +27°C° 0 mm 3 mps 751 mmHg 58%
    05:00 +26°C° 0 mm 3 mps 751 mmHg 60%
    06:00 +29°C° 0 mm 3 mps 751 mmHg 54%
    07:00 +31°C° 0 mm 3 mps 751 mmHg 48%
    08:00 +35°C° 0 mm 3 mps 751 mmHg 42%
    09:00 +37°C° 0 mm 3 mps 751 mmHg 37%
    10:00 +39°C° 0 mm 3 mps 751 mmHg 31%
    11:00 +42°C° 0 mm 3 mps 750 mmHg 26%
    12:00 +41°C° 0 mm 2 mps 750 mmHg 26%
    13:00 +41°C° 0 mm 2 mps 749 mmHg 26%
    14:00 +41°C° 0 mm 1 mps 748 mmHg 26%
    15:00 +41°C° 0 mm 2 mps 748 mmHg 26%
    16:00 +40°C° 0 mm 2 mps 747 mmHg 26%
    17:00 +40°C° 0 mm 2 mps 747 mmHg 26%
    18:00 +38°C° 0.3 mm 3 mps 748 mmHg 33%
    19:00 +36°C° 0.3 mm 5 mps 748 mmHg 40%
    20:00 +33°C° 0.3 mm 6 mps 749 mmHg 47%
    21:00 +30°C° 1.1 mm 6 mps 750 mmHg 59%
    22:00 +27°C° 1.1 mm 6 mps 751 mmHg 72%
    23:00 +23°C° 1.1 mm 6 mps 751 mmHg 84%
    Show more